This is the latest recevied weather packets stored in our database for station/object CE3SUR-17. If no packets are shown the sender has not sent any weather packets the latest 10 day(s).
| Time | Temp. | Humidity | Pressure | Rain* | Wind** | Luminosity | Snow |
|---|---|---|---|---|---|---|---|
| 1777888730 | 17.78° C | 43% | 958.3 hPa | - | - | - | - |
| 1777886930 | 18.33° C | 43% | 958.2 hPa | - | - | - | - |
| 1777885130 | 18.33° C | 43% | 958.1 hPa | - | - | - | - |
| 1777883330 | 18.33° C | 43% | 958 hPa | - | - | - | - |
| 1777881530 | 18.89° C | 43% | 958.4 hPa | - | - | - | - |
| 1777879729 | 18.89° C | 43% | 958.5 hPa | - | - | - | - |
| 1777877929 | 19.44° C | 43% | 958.8 hPa | - | - | - | - |
| 1777876129 | 20° C | 43% | 958.9 hPa | - | - | - | - |
| 1777874329 | 20° C | 42% | 959.4 hPa | - | - | - | - |
| 1777872529 | 20.56° C | 42% | 959.8 hPa | - | - | - | - |
| 1777870728 | 20.56° C | 42% | 959.8 hPa | - | - | - | - |
| 1777868928 | 21.11° C | 43% | 959.8 hPa | - | - | - | - |
| 1777867129 | 21.67° C | 42% | 959.7 hPa | - | - | - | - |
| 1777865329 | 21.67° C | 42% | 959.8 hPa | - | - | - | - |
| 1777863529 | 22.22° C | 42% | 960.2 hPa | - | - | - | - |
| 1777861728 | 22.78° C | 42% | 960 hPa | - | - | - | - |
| 1777859928 | 22.78° C | 42% | 960 hPa | - | - | - | - |
| 1777858128 | 23.33° C | 42% | 959.8 hPa | - | - | - | - |
| 1777856328 | 23.89° C | 42% | 959.9 hPa | - | - | - | - |
| 1777854528 | 24.44° C | 42% | 960 hPa | - | - | - | - |
| 1777852727 | 25° C | 42% | 959.9 hPa | - | - | - | - |
| 1777850927 | 25° C | 42% | 959.6 hPa | - | - | - | - |
| 1777849127 | 25.56° C | 41% | 959.5 hPa | - | - | - | - |
| 1777847327 | 26.11° C | 41% | 959.4 hPa | - | - | - | - |
| 1777845530 | 27.22° C | 41% | 958.9 hPa | - | - | - | - |
* Rain since midnight (hover to see other rain measurements)
** Current wind speed in m/s (hover to see current wind gust speed)